User: anonymous   Login
Location: Cussy
(47.0410°N, 4.6412°E)
Time: 23:01:47
(UTC+00:00)
Language:

FENGYUN 1C DEB - Orbit

View from above orbital plane
View from above orbital plane
View from above satellite
View from above satellite

Ground track
Ground track

The orbit data is extracted from the following two-line orbital elements,

1 37406U 99025EFY 21174.38892412  .00000680  00000-0  46023-3 0  9999
2 37406  98.4283 145.9427 0162395 173.0967 341.1876 13.97101658403791
Epoch (UTC): 23 June 2021 09:20:03
Eccentricity: 0.0162395
inclination: 98.4283°
perigee height: 785 km
apogee height: 1022 km
right ascension of ascending node: 145.9427°
argument of perigee: 173.0967°
revolutions per day: 13.97101658
mean anomaly at epoch: 341.1876°
orbit number at epoch: 40379

The dashed part of the orbit path shows where the satellite is in the earth's shadow,  

DLR